Terug naar catalogus

STARLINK-3590

ActiefCommunicatieVLEO
NORAD 51867·PAYLOAD·🇺🇸 United States

Gelanceerd Mar 3, 2022 vanaf Cape Canaveral Space Force Station

Loading…

Volgende Passages (komende 24 uur)

TLE

VersSource: CelesTrak SupGP

Epoch: Sep 15, 2026, 02:40 UTC

1 51867C 22022R   26258.11159722 -.00032058  00000+0 -91733-3 0  2589
2 51867  53.1589 228.6560 0001356  89.7629 297.3077 15.35409804    10

Volg STARLINK-3590 in realtime met AllMySat

Download on the App Store